Location: Berlise
(49.6641°N, 4.1077°E)
Time: 23:43:52
(UTC+00:00)

GEOS 3 Rocket - Pass Details

Date: 27 January 2021
Orbit: 771 x 848 km, 115.0° (Epoch: 01 March)

Event Time Altitude Azimuth Distance (km) Brightness Sun altitude
Rises 06:15:15 0° 160° (SSE) 3,368 7.4 -10.9°
Reaches altitude 10° 06:17:41 10° 168° (SSE) 2,446 6.5 -10.6°
Maximum altitude 06:22:41 41° 238° (WSW) 1,216 4.3 -9.8°
Drops below altitude 10° 06:27:46 10° 307° (NW) 2,479 5.5 -9.0°
Enters shadow 06:27:58 - 308° (NW) 2,550 5.6 -9.0°
